Timeline UpdatesTrip UpdatesNews PostsPvt PostsTravel TipsAdmin PostsConv PostsFollowed PostsChat RequestsBlog PostsPNR Posts

Disclaimer
Search
 
 
Wed Apr 23, 2014 19:01:37 ISTHomeTrainsΣChainsAtlasPNRForumGalleryNewsFAQTripsMembersLoginFeedback
No Recent News for this Train
Other Trains in the News **new
Latest...
Will be short terminated at Faizabad from 27/11 to 04/12.
Mon Nov 25, 2013 (01:33PM)
⇐ Return Journey: Train# 54333

54334/Lucknow Varanasi Passenger (UnReserved)

Sep 12 2013 (12:49PM)
Change Departure Station:
Change Arrival Station:
Post a Train Travel TipPost a Train Travel Tip **new
Post a Comment/Question/Picture/VideoPost a Comment/Question/Picture/Video
Pantry/Catering
???
RSA - Rake Sharing
Rake/Coach Composition
Loco
LKO WDM-3A
News    PNR    Forum    Time-Table    Availability    Fare Chart    Map    Arr/Dep History    Trips    Gallery    ΣChains    X/O    Timeline    
Travel Time: 6h 24m    33 halts    Distance: 260 km    Avg Speed: 40 km/hr
Type: Passenger
Zone: NR/Northern
Departs @ 12:45 (Avg 24m late)
Platform# 6
SMTWTFS
Lucknow Charbagh/LKO 
Arrives @ 19:09 (Avg 2h 40m late)
Platform# 1
SMTWTFS
Mahgawan Halt/MGWN 

33 halts. 33 intermediate Stations between Lucknow Charbagh and Mahgawan Halt

Show ALL intermediate Stations  Show Old Time-Table

#CodeStation NameX/OArrivesAvgDepartsAvgHaltPFDay#KmSpeedElevZoneAddress
1LKO»Lucknow Charbagh (9)»  -12:45+24610.036123mNRCharbagh, Uttar Pradesh
2MLMalhaur (3)  13:05+4913:06+521m--112.041121mNRLucknow, Uttar Pradesh
3JRRJugaur (1)X  13:14+5013:15+501m1117.529123mNRCanal Rd, Uttar Pradesh
4SFHSafedabad (3)X  13:22+4913:23+511m--120.833120mNRBarabanki, Uttar Pradesh
5BBKBarabanki Junction (4)X  13:37+4213:38+461m--128.537122mNRPin-225001, Uttar Pradesh
6RESRasauliX  13:50+5213:51+551m--135.859125mNRFaizabad Rd, Uttar Pradesh
7SGJSafdarGanjX  14:02+5514:03+561m--146.655116mNRFaizabad Rd, Uttar Pradesh
8SYKSaidkhanpur  14:14+5514:15+571m--156.853116mNRSaidkhanpur, Uttar Pradesh
9DYDDaryabad  14:26+5514:27+571m--166.557116mNRFaizabad Rd, Uttar Pradesh
10PTHPatrangaX  14:36+1:0014:37+1:001m--175.060113mNRFaizabad Rd, Uttar Pradesh
11RZNRauzagaon  14:46+1:0114:47+1:011m--184.148111mNRFaizabad Rd, Uttar Pradesh
12RDLRudauli (2)  14:54+1:0214:55+1:041m--189.643112mNRRudauli, Uttar Pradesh
13GMUGauriyamau  15:02+1:0215:03+1:021m--194.637108mNRFaizabad Rd, Uttar Pradesh
14BNMBaragaonX  15:10+1:0215:11+1:101m--198.951115mNRFaizabad Rd, Uttar Pradesh
15DELODeorakot  15:18+1:1215:19+1:161m--1104.858110mNRDewracoat, Uttar Pradesh
16SLWSohwal  15:27+1:1715:28+1:231m--1112.449107mNRFaizabad Rd, Uttar Pradesh
17SLRPSalarpur  15:36+1:2315:37+1:301m--1119.021106mNRJaganpur, Uttar Pradesh
18FDFaizabad Junction (5)X  16:02+1:1716:10+1:348m--1127.713104mNRFaizabad, Uttar Pradesh
19ACNDAcharya Narendra Dev Nagar  16:20+1:4116:21+1:441m--1129.927104mNRFaizabad, Uttar Pradesh
20AYAyodhya Junction (3)  16:31+1:3916:32+1:431m11134.44998mNRAyodhya, Uttar Pradesh
21DRGDarshannagar (2)  16:38+1:4916:39+1:511m--1139.466103mNRayodhya, Uttar Pradesh
22BLGBilhar GhatX  16:48+1:5216:49+1:571m--1149.357104mNRNawab Yousuf Rd, Uttar Pradesh
23ULNUlna BhariX  16:58+1:5616:59+1:581m--1157.856104mNRNawab Yousuf Rd, Uttar Pradesh
24GGJGoshainGanj (3)X  17:08+1:5417:09+2:011m--1166.16498mNRGoshainganj, Uttar Pradesh
25KTHEKatahriX  17:19+2:0717:20+2:131m--1176.75495mNRKatehri, Uttar Pradesh
26ABPAkbarpur (2)  17:33+2:0817:34+2:121m--1188.35592mNRAkbarpur, Uttar Pradesh
27JFGJafarganjX  17:44+2:1917:45+2:241m--1197.66692mNRNawab Yousuf Rd, Uttar Pradesh
28MLPRMalipur (2)  17:54+2:2617:55+2:311m--1207.45192mNRMalipur, Uttar Pradesh
29TLGRTulsi NagarX  18:04+2:3018:05+2:321m--1215.14891mNRNawab Yousuf Rd, Uttar Pradesh
30BWIBilwai (1)  18:13+2:3118:14+2:371m11221.56691mNRBilwai, Uttar Pradesh
31SHGShahganj Junction (4)X  18:24+2:2218:28+2:274m31232.44090mNRShahganj, Uttar Pradesh
32KSKheta Sarai (1)X  18:44+2:4218:45+2:421m11243.14288mNRKheta Sarai, Uttar Pradesh
33MNKNManikalan Halt (1)  18:52+2:4018:53+2:401m11248.05785mNRNawab Yousuf Rd, Uttar Pradesh
34MIHMihrawan (1)  18:59+2:4019:00+2:421m11253.74088mNRChak Bhavani Shanker, Uttar Pradesh
35MGWN•Mahgawan Halt (1)•X  19:09+2:4019:10+2:411m11259.6484mNRDalhanpur, Uttar Pradesh
36JNUJaunpur Junction (5)X  20:51+1:3120:53+1:402m11265.82083mNRJaunpur, Uttar Pradesh
37ZBDZafarabad Junction (4)X  21:12+1:3321:13+1:391m--1272.23383mNRNational Highway 56, Uttar Pradesh
38SIQSarkoni (2)XO  21:24+1:3821:25+1:391m21278.32785mNRBandipur, Uttar Pradesh
39JLLJalalGanj (2)X  21:38+1:3621:39+1:361m21284.23187mNRJalalganj Railway Station, Uttar Pradesh
40TLMDTrilochan Mahdo (2)  21:51+1:3221:52+1:331m21290.42683mNRNational Highway 56, Uttar Pradesh
41KSFKhalispur (2)  22:04+1:3022:05+1:311m21295.63983mNRPhulpur, Uttar Pradesh
42PDRDPindra Road (2)X  22:11+1:3122:12+1:311m21299.45481mNRSatomahua-Mangari Rd, Uttar Pradesh
43BTPBabatpur (2)  22:18+1:3122:19+1:311m21304.94484mNRSatomahua-Mangari Rd, Uttar Pradesh
44BRPTBirapatti (2)  22:28+1:3022:29+1:331m--1311.53584mNRRd Varanasi Uttar Pradesh, Uttar Pradesh
45SOPShivpur (3)  22:40+1:3122:41+1:321m--1317.82481mNRVaranasi, Uttar Pradesh
46BSBVaranasi Junction (9)  22:55+1:35-71323.4-82mNRVaranasi, Uttar Pradesh
Scroll to Top
Scroll to Bottom